Regional Weather Roundup
Issued by NWS

Home | Current Version | Previous Version | Text Only | Print | Product List | Glossary On
Versions: 1 2 3 4 5 6 7 8 9 10 11 12 13 14 15 16 17 18 19 20 21 22 23 24 25 26 27 28 29 30 31 32 33 34 35 36 37 38 39 40 41 42 43 44 45 46 47 48 49 50
000
ASUS43 KDTX 250010
RWRMI
MICHIGAN HOURLY REGIONAL WEATHER ROUNDUP
NATIONAL WEATHER SERVICE DETROIT/PONTIAC MI
800 PM EDT WED MAY 24 2017

NOTE: "FAIR" INDICATES FEW OR NO CLOUDS BELOW 12,000 FEET WITH NO
SIGNIFICANT WEATHER AND/OR OBSTRUCTION TO VISIBILITY.

MIZ047>049-052>055-059>063-066>070-074>076-081>083-250100-
SOUTHEAST LOWER MICHIGAN

CITY           SKY/WX    TMP DP  RH WIND       PRES   REMARKS
ADRIAN         CLOUDY    58  58 100 E14G20    29.50F
6HR MIN TEMP:  58; 6HR MAX TEMP:  62; 6HR PCP:  0.07;

ALMA           CLOUDY    60  54  80 NE10G21   29.58S
ANN ARBOR      CLOUDY    59  58  96 NE8       29.52R FOG
BAD AXE        LGT RAIN  55  51  86 NE5       29.62R
6HR MIN TEMP:  55; 6HR MAX TEMP:  67;

CARO           DRIZZLE   61  56  83 E6        29.59R
DETROIT CITY   CLOUDY    59  58  96 E9        29.54R
6HR MIN TEMP:  59; 6HR MAX TEMP:  63; 6HR PCP:  0.07;

DETROIT        LGT RAIN  59  58  96 E12       29.53R FOG
6HR MIN TEMP:  60; 6HR MAX TEMP:  65; 6HR PCP:  0.04;

FLINT          LGT RAIN  60  58  92 E12       29.56R FOG
6HR MIN TEMP:  60; 6HR MAX TEMP:  71; 6HR PCP:  0.04;

GROSSE ILE     LGT RAIN  59  57  93 E9        29.51S
6HR MIN TEMP:  59; 6HR MAX TEMP:  64; 6HR PCP:  0.01;

HILLSDALE      HVY RAIN  59  55  88 NE12      29.50S
HOWELL         RAIN      59  56  89 NE5       29.54R
6HR MIN TEMP:  59; 6HR MAX TEMP:  67; 6HR PCP:  0.07;


CITY           SKY/WX    TMP DP  RH WIND       PRES   REMARKS
JACKSON        RAIN      60  57  89 NE7       29.52S FOG
6HR MIN TEMP:  60; 6HR MAX TEMP:  69; 6HR PCP:  0.20;

LAMBERTVILLE   CLOUDY    57  56  95 E9G16     29.49S
6HR MIN TEMP:  57; 6HR MAX TEMP:  64;

LANSING        CLOUDY    61  56  83 N8        29.55R
6HR MIN TEMP:  60; 6HR MAX TEMP:  69; 6HR PCP:  0.01;

LAPEER         LGT RAIN  60  58  95 E6        29.57F
6HR MIN TEMP:  59; 6HR MAX TEMP:  70; 6HR PCP:  0.03;

MASON          RAIN      60  56  85 NE6       29.54S
MONROE         LGT RAIN  59  57  94 NE12      29.50R
MT. CLEMENS    DRIZZLE   59  59 100 NE12      29.53S FOG
6HR MIN TEMP:  59; 6HR MAX TEMP:  65; 6HR PCP:  0.21;

PONTIAC        LGT RAIN  59  56  89 E12       29.54R FOG
6HR MIN TEMP:  59; 6HR MAX TEMP:  66; 6HR PCP:  0.04;

PORT HOPE        N/A     52  47  83 E10       29.61S
6HR MIN TEMP:  50; 6HR MAX TEMP:  53;

PORT HURON     LGT RAIN  57  54  88 N6        29.57S
TRI CITIES     CLOUDY    56  52  86 NE17      29.60R
6HR MIN TEMP:  56; 6HR MAX TEMP:  61;

MIDLAND        CLOUDY    60  50  70 NE10G17   29.59S
6HR MIN TEMP:  60; 6HR MAX TEMP:  66;

TROY           CLOUDY    60  57  89 E8        29.56R
SAGINAW HB     CLOUDY    57  50  77 N14       29.58R
$$
MIZ043>046-050>051-056>058-064>065-071>073-077>080-250100-
SOUTHWEST LOWER MICHIGAN

CITY           SKY/WX    TMP DP  RH WIND       PRES   REMARKS
BATTLE CREEK   LGT RAIN  61  58  90 NE5       29.54R
6HR MIN TEMP:  60; 6HR MAX TEMP:  69; 6HR PCP:  0.15;

BENTON HARBOR  LGT RAIN  60  57  89 E6        29.52R FOG
6HR MIN TEMP:  58; 6HR MAX TEMP:  68; 6HR PCP:  0.13;

BIG RAPIDS     CLOUDY    62  51  66 E7        29.59S
6HR MIN TEMP:  62; 6HR MAX TEMP:  67;

COLDWATER      RAIN      58  58 100 N8        29.51S
6HR MIN TEMP:  58; 6HR MAX TEMP:  69;

FREMONT        CLOUDY    64  51  63 E14G20    29.58R
HOLLAND        LGT RAIN  59  56  89 E5        29.55F
6HR MIN TEMP:  58; 6HR MAX TEMP:  72; 6HR PCP:  0.03;

GRAND RAPIDS   LGT RAIN  60  59  96 NE8       29.55S FOG
6HR MIN TEMP:  60; 6HR MAX TEMP:  71; 6HR PCP:  0.09;

IONIA          CLOUDY    60  55  85 NE9       29.55S
6HR MIN TEMP:  60; 6HR MAX TEMP:  68; 6HR PCP:  0.02;

KALAMAZOO      LGT RAIN  61  57  87 NE3       29.54R
6HR MIN TEMP:  60; 6HR MAX TEMP:  72; 6HR PCP:  0.36;

LUDINGTON      CLOUDY    58  54  85 N6        29.59S
6HR MIN TEMP:  55; 6HR MAX TEMP:  61;

MARSHALL       LGT RAIN  60  59  98 CALM      29.52S
6HR MIN TEMP:  60; 6HR MAX TEMP:  69; 6HR PCP:  0.12;

MOUNT PLEASANT CLOUDY    62  51  68 NE9       29.59R
6HR MIN TEMP:  62; 6HR MAX TEMP:  69;

MUSKEGON       CLOUDY    66  55  67 NE9       29.56R
6HR MIN TEMP:  63; 6HR MAX TEMP:  73; 6HR PCP:  0.02;

SOUTH HAVEN    DRIZZLE   61  59  94 E5        29.53S
$$
MIZ016>042-250100-
NORTHERN LOWER MICHIGAN

CITY           SKY/WX    TMP DP  RH WIND       PRES   REMARKS
ALPENA         MOCLDY    59  53  80 NE10      29.68F
6HR MIN TEMP:  59; 6HR MAX TEMP:  64; 6HR PCP: TRACE;

BEAVER ISLAND  CLOUDY    55  51  87 NE6       29.72R
6HR MIN TEMP:  51; 6HR MAX TEMP:  56;

BELLAIRE       CLOUDY    60  52  74 NE8       29.67R
6HR MIN TEMP:  60; 6HR MAX TEMP:  67;

CADILLAC       CLOUDY    62  51  67 E14       29.62S
CHARLEVOIX     CLOUDY    57  51  81 NE8       29.72R
FRANKFORT      CLOUDY    56  50  79 N3        29.63S
GAYLORD        CLOUDY    59  49  69 NE9       29.68S
6HR MIN TEMP:  59; 6HR MAX TEMP:  62;

GRAYLING       CLOUDY    61  50  67 NE17      29.66F
HARBOR SPRINGS CLOUDY    55  52  88 NE9       29.70R
HOUGHTON LAKE  CLOUDY    61  49  64 E13       29.64S
6HR MIN TEMP:  58; 6HR MAX TEMP:  66;

MANISTEE       CLOUDY    62  53  72 NE9       29.61R HAZE
OSCODA         CLOUDY    57  48  73 N12G23    29.64F
6HR MIN TEMP:  56; 6HR MAX TEMP:  62;

PELLSTON       CLOUDY    56  50  80 NE6       29.71S
6HR MIN TEMP:  53; 6HR MAX TEMP:  59; 6HR PCP: TRACE;

ROGERS CITY    CLOUDY    52  47  84 N3        29.71S
TRAVERSE CITY  CLOUDY    56  50  80 NE9       29.64R
6HR MIN TEMP:  56; 6HR MAX TEMP:  65;

$$
MIZ007>008-015-250100-
EASTERN UPPER MICHIGAN

CITY           SKY/WX    TMP DP  RH WIND       PRES   REMARKS
KINROSS        MOSUNNY   58  51  78 NE9       29.73R
6HR MIN TEMP:  52; 6HR MAX TEMP:  59; 6HR PCP: TRACE;

MACKINAC ISLAN CLOUDY    55  55  99 NE7       29.72R
6HR MIN TEMP:  53; 6HR MAX TEMP:  57;

NEWBERRY       CLOUDY    56  50  79 NE7       29.73S
6HR MIN TEMP:  55; 6HR MAX TEMP:  58;

S. S. MARIE    PTSUNNY   60  50  69 NE5       29.73R
6HR MIN TEMP:  56; 6HR MAX TEMP:  62;

MUNISING         N/A     46  42  86 N6        29.75R
6HR MIN TEMP:  44; 6HR MAX TEMP:  48;

$$
MIZ004>006-011>014-085-250100-
CENTRAL UPPER MICHIGAN

CITY           SKY/WX    TMP DP  RH WIND       PRES   REMARKS
MANISTIQUE     CLOUDY    58  50  74 NE7       29.71S
6HR MIN TEMP:  54; 6HR MAX TEMP:  61;

ESCANABA       CLOUDY    55  48  76 N6        29.72R
6HR MIN TEMP:  54; 6HR MAX TEMP:  57;

MENOMINEE      CLOUDY    52  49  89 NE10      29.71S
6HR MIN TEMP:  51; 6HR MAX TEMP:  53; 6HR PCP: TRACE;

SAWYER-GWINN   PTSUNNY   48  43  81 NE9       29.76R
$$
MIZ001>003-009>011-084-250100-
WESTERN UPPER MICHIGAN

CITY           SKY/WX    TMP DP  RH WIND       PRES   REMARKS
IRON MOUNTAIN  CLOUDY    55  45  68 NE8       29.72R
6HR MIN TEMP:  53; 6HR MAX TEMP:  57;

HOUGHTON       SUNNY     51  42  71 SE8       29.76S
6HR MIN TEMP:  50; 6HR MAX TEMP:  54;

COPPER HARBOR    N/A     54  43  66 CALM      29.76S
6HR MIN TEMP:  44; 6HR MAX TEMP:  55;

IRONWOOD       SUNNY     56  45  66 NE7       29.75R
6HR MIN TEMP:  51; 6HR MAX TEMP:  60; 6HR PCP: TRACE;

$$

ABBREVIATIONS USED IN REMARKS
   TC - TEMPERATURE IN CELSIUS
  WCI - WIND CHILL INDEX
   HX - HEAT INDEX
  VSB - VISIBILITY




USA.gov is the U.S. government's official web portal to all federal, state and local government web resources and services.